星链-30039 (STARLINK-30039 )

导读

STARLINK-30039是美国SpaceX星链计划中的一颗卫星,于2023年7月28日发射升空。作为星链星座的组成部分,它主要服务于全球卫星互联网项目,旨在为全球偏远、网络基础设施匮乏地区提供高速宽带网络服务,进一步推动星链星座组网进度,扩大星链系统的覆盖范围与服务能力。

基本信息
目录编号:
57468
目录名称:
STARLINK-30039
国际标识:
2023-107M
轨道中心:
EARTH
卫星名称:
星链-30039
卫星全名:
星链-30039 (STARLINK-30039 )
卫星状态:
在轨 (已飞行1141 天)
发射日期:
2023-07-28 UTC
国别 :
美国 (US)
星等 :
--
该卫星已列入 空间交会检测服务 Space Conjunction Data Service (SCDS) ,当前飞行风险评估等级: 无高风险
轨道信息
数据来源 国际轨道数据 AOE轨道数据
星历时间 2026-09-11T15:35:45+0800
7小时前
查看轨道信息
2026-09-10T17:00:00+0800
1天前
查看轨道信息
半长轴 6861.198km 6861.194km
偏心率 0.0002375 0.0002235
轨道倾角 43.007° 43.004°
近地点辐角 279.691° 288.507°
升交点赤经 8.009° 13.331°
平近点角 80.367° 287.969°
近地点 481.431km 481.523km
远地点 484.691km 484.591km
周期 94.267分钟 94.267分钟
每日圈数 15.275763 15.275775
详细信息
固有亮度:
5
最大亮度:
0.3
卫星平台:
Starlink v2.0 mini
覆盖范围:
全球
运营商:
太空探索技术公司
运营商所在国:
美国
制造商(研发单位):
太空探索技术公司
制造商所在国:
美国
使用方式:
暂无
卫星简介
星链(Starlink)计划是由太空探索技术公司(SpaceX)提出的一个巨型低轨卫星互联网星座项目,计划在2019年至2024年间在太空搭建由约1.2万颗卫星组成的“星链”网络,其中1584颗将部署在地球上空550千米处的近地轨道,并从2020年开始工作。该卫星仍在工作。
2D轨道图
3D轨道图
轨道高度分析图
轨道倾角分析图
轨道综合分析图
查看轨道综合分析图
交会数据列表
事件ID 空间交会对象 最接近时刻(TCA) 交会距离 交会风险概率(CRP) 交会风险指数(CRI) 操作
CDM_260913-191905-746806-793721
2026-09-13T
19:19:43+0000
0.779 km
远距离
4.704148E-5 中风险 0.68
CDM_260913-035805-746806-364221
2026-09-13T
03:58:27+0000
0.815 km
远距离
1.66389E-5 中风险 0.59
CDM_260913-013705-746806-364221
2026-09-13T
01:37:14+0000
0.916 km
远距离
1.118626E-5 中风险 0.56
CDM_260913-205305-746806-793721
2026-09-13T
20:53:53+0000
1.456 km
极远距离
5.639441E-6 低风险 0.5
CDM_260913-174505-746806-793721
2026-09-13T
17:45:34+0000
2.725 km
极远距离
1.209674E-6 低风险 0.37
CDM_260913-053205-746806-364221
2026-09-13T
05:32:37+0000
2.862 km
极远距离
5.563324E-7 极低风险 0.3
CDM_260913-031105-746806-364221
2026-09-13T
03:11:23+0000
2.944 km
极远距离
5.39166E-7 极低风险 0.3
与全量物体交会距离演化趋势
与全量物体交会风险概率演化趋势